| time (UTC) | temp F | wind direction | speed MPH | gust MPH | rain 1hr in | rain 24hr in | rain mn in | humidity % | barometer mb |
| 20260902152012 | 86 | 271 | 0.0 | 3.0 | 0.00 | 0.00 | 0.00 | 69 | 1020.6 |
| 20260902151512 | 86 | 217 | 1.0 | 5.0 | 0.00 | 0.00 | 0.00 | 66 | 1020.6 |
| 20260902151012 | 86 | 276 | 1.0 | 5.0 | 0.00 | 0.00 | 0.00 | 68 | 1020.5 |
| 20260902150510 | 85 | 257 | 0.0 | 3.0 | 0.00 | 0.00 | 0.00 | 71 | 1020.6 |
| 20260902150111 | 85 | 283 | 1.0 | 3.0 | 0.00 | 0.00 | 0.00 | 70 | 1020.6 |
| 20260902145509 | 85 | 201 | 0.0 | 3.0 | 0.00 | 0.00 | 0.00 | 71 | 1020.6 |
| 20260902145013 | 85 | 235 | 0.0 | 4.0 | 0.00 | 0.00 | 0.00 | 73 | 1020.6 |
| 20260902144506 | 84 | 274 | 1.0 | 6.0 | 0.00 | 0.00 | 0.00 | 72 | 1020.6 |
| 20260902144006 | 84 | 261 | 1.0 | 4.0 | 0.00 | 0.00 | 0.00 | 74 | 1020.5 |
| 20260902143506 | 84 | 257 | 0.0 | 4.0 | 0.00 | 0.00 | 0.00 | 74 | 1020.6 |
| 20260902143005 | 84 | 261 | 0.0 | 4.0 | 0.00 | 0.00 | 0.00 | 77 | 1020.5 |
| 20260902142504 | 84 | 287 | 0.0 | 2.0 | 0.00 | 0.00 | 0.00 | 77 | 1020.5 |
| 20260902142004 | 83 | 263 | 0.0 | 4.0 | 0.00 | 0.00 | 0.00 | 78 | 1020.5 |
| 20260902141505 | 83 | 260 | 1.0 | 4.0 | 0.00 | 0.00 | 0.00 | 76 | 1020.6 |
| 20260902141001 | 82 | 279 | 0.0 | 2.0 | 0.00 | 0.00 | 0.00 | 78 | 1020.5 |
| 20260902140605 | 82 | 279 | 0.0 | 3.0 | 0.00 | 0.00 | 0.00 | 78 | 1020.5 |
| 20260902135559 | 81 | 228 | 2.0 | 4.0 | 0.00 | 0.00 | 0.00 | 76 | 1020.4 |
| 20260902135056 | 81 | 251 | 0.0 | 2.0 | 0.00 | 0.00 | 0.00 | 78 | 1020.4 |
| 20260902134558 | 81 | 271 | 0.0 | 3.0 | 0.00 | 0.00 | 0.00 | 80 | 1020.5 |
| 20260902134054 | 80 | 271 | 0.0 | 3.0 | 0.00 | 0.00 | 0.00 | 80 | 1020.4 |
| 20260902133554 | 80 | 286 | 0.0 | 2.0 | 0.00 | 0.00 | 0.00 | 81 | 1020.1 |
| 20260902133053 | 80 | 281 | 0.0 | 2.0 | 0.00 | 0.00 | 0.00 | 81 | 1020.1 |
| 20260902132551 | 79 | 252 | 0.0 | 3.0 | 0.00 | 0.00 | 0.00 | 83 | 1020.3 |
| 20260902132051 | 79 | 263 | 0.0 | 3.0 | 0.00 | 0.00 | 0.00 | 83 | 1020.3 |
| 20260902131551 | 79 | 297 | 0.0 | 3.0 | 0.00 | 0.00 | 0.00 | 85 | 1020.3 |
| 20260902131052 | 78 | 280 | 1.0 | 3.0 | 0.00 | 0.00 | 0.00 | 85 | 1020.2 |
| 20260902130548 | 77 | 300 | 0.0 | 0.0 | 0.00 | 0.00 | 0.00 | 87 | 1020.2 |
| 20260902130046 | 77 | 300 | 0.0 | 2.0 | 0.00 | 0.00 | 0.00 | 88 | 1020.3 |
| 20260902125545 | 76 | 300 | 0.0 | 2.0 | 0.00 | 0.00 | 0.00 | 89 | 1020.3 |
| 20260902125043 | 76 | 269 | 0.0 | 1.0 | 0.00 | 0.00 | 0.00 | 89 | 1020.5 |
| 20260902124543 | 75 | 269 | 0.0 | 0.0 | 0.00 | 0.00 | 0.00 | 89 | 1020.5 |
| 20260902124046 | 75 | 269 | 0.0 | 0.0 | 0.00 | 0.00 | 0.00 | 90 | 1020.5 |
| 20260902123540 | 75 | 269 | 0.0 | 0.0 | 0.00 | 0.00 | 0.00 | 91 | 1020.5 |
| 20260902123040 | 74 | 257 | 0.0 | 0.0 | 0.00 | 0.00 | 0.00 | 93 | 1020.4 |
| 20260902122542 | 73 | 257 | 0.0 | 0.0 | 0.00 | 0.00 | 0.00 | 94 | 1020.5 |
| 20260902122040 | 73 | 228 | 0.0 | 0.0 | 0.00 | 0.00 | 0.00 | 94 | 1020.4 |
| 20260902121539 | 72 | 228 | 0.0 | 0.0 | 0.00 | 0.00 | 0.00 | 95 | 1020.4 |
| 20260902121037 | 72 | 228 | 0.0 | 0.0 | 0.00 | 0.00 | 0.00 | 96 | 1020.3 |
| 20260902120539 | 71 | 228 | 0.0 | 0.0 | 0.00 | 0.00 | 0.00 | 97 | 1020.3 |
| 20260902120037 | 71 | 228 | 0.0 | 0.0 | 0.00 | 0.00 | 0.00 | 97 | 1020.3 |
| 20260902115536 | 70 | 228 | 0.0 | 0.0 | 0.00 | 0.00 | 0.00 | 97 | 1020.3 |
| 20260902115035 | 70 | 228 | 0.0 | 0.0 | 0.00 | 0.00 | 0.00 | 97 | 1020.3 |
| 20260902114607 | 70 | 228 | 0.0 | 0.0 | 0.00 | 0.00 | 0.00 | 97 | 1020.1 |
| 20260902114035 | 70 | 188 | 0.0 | 0.0 | 0.00 | 0.00 | 0.00 | 97 | 1020.0 |
| 20260902113534 | 69 | 188 | 0.0 | 0.0 | 0.00 | 0.00 | 0.00 | 97 | 1020.0 |
| 20260902113034 | 69 | 188 | 0.0 | 0.0 | 0.00 | 0.00 | 0.00 | 97 | 1020.0 |
| 20260902112535 | 69 | 188 | 0.0 | 0.0 | 0.00 | 0.00 | 0.00 | 97 | 1019.9 |
| 20260902112035 | 69 | 188 | 0.0 | 0.0 | 0.00 | 0.00 | 0.00 | 97 | 1020.0 |
| 20260902111534 | 69 | 188 | 0.0 | 0.0 | 0.00 | 0.00 | 0.00 | 97 | 1020.0 |
| 20260902111033 | 69 | 188 | 0.0 | 0.0 | 0.00 | 0.00 | 0.00 | 97 | 1020.0 |
| 20260902110533 | 69 | 188 | 0.0 | 0.0 | 0.00 | 0.00 | 0.00 | 97 | 1019.9 |
| 20260902110033 | 69 | 188 | 0.0 | 0.0 | 0.00 | 0.00 | 0.00 | 97 | 1019.8 |
| 20260902105534 | 69 | 188 | 0.0 | 0.0 | 0.00 | 0.00 | 0.00 | 97 | 1019.9 |
| 20260902105031 | 69 | 188 | 0.0 | 0.0 | 0.00 | 0.00 | 0.00 | 97 | 1019.9 |
| 20260902104531 | 69 | 188 | 0.0 | 0.0 | 0.00 | 0.00 | 0.00 | 97 | 1019.8 |
| 20260902104029 | 69 | 188 | 0.0 | 0.0 | 0.00 | 0.00 | 0.00 | 97 | 1019.8 |
| 20260902103529 | 70 | 188 | 0.0 | 0.0 | 0.00 | 0.00 | 0.00 | 97 | 1019.8 |
| 20260902103029 | 70 | 188 | 0.0 | 0.0 | 0.00 | 0.00 | 0.00 | 97 | 1019.9 |
| 20260902102529 | 70 | 188 | 0.0 | 0.0 | 0.00 | 0.00 | 0.00 | 97 | 1019.7 |
| 20260902102029 | 70 | 188 | 0.0 | 0.0 | 0.00 | 0.00 | 0.00 | 97 | 1019.8 |
| 20260902101529 | 70 | 188 | 0.0 | 0.0 | 0.00 | 0.00 | 0.00 | 97 | 1019.8 |
| 20260902101028 | 70 | 188 | 0.0 | 0.0 | 0.00 | 0.00 | 0.00 | 97 | 1019.8 |
| 20260902100528 | 70 | 188 | 0.0 | 0.0 | 0.00 | 0.00 | 0.00 | 97 | 1019.7 |
| 20260902100027 | 70 | 188 | 0.0 | 0.0 | 0.00 | 0.00 | 0.00 | 96 | 1019.6 |
| 20260902095527 | 70 | 188 | 0.0 | 0.0 | 0.00 | 0.00 | 0.00 | 97 | 1019.6 |
| 20260902095025 | 70 | 188 | 0.0 | 0.0 | 0.00 | 0.00 | 0.00 | 97 | 1019.6 |
| 20260902094525 | 70 | 188 | 0.0 | 0.0 | 0.00 | 0.00 | 0.00 | 96 | 1019.5 |
| 20260902094026 | 70 | 188 | 0.0 | 0.0 | 0.00 | 0.00 | 0.00 | 96 | 1019.5 |
| 20260902093525 | 70 | 188 | 0.0 | 0.0 | 0.00 | 0.00 | 0.00 | 97 | 1019.4 |
| 20260902093025 | 70 | 188 | 0.0 | 0.0 | 0.00 | 0.00 | 0.00 | 96 | 1019.4 |
| 20260902092525 | 70 | 188 | 0.0 | 0.0 | 0.00 | 0.00 | 0.00 | 96 | 1019.3 |
| 20260902092025 | 70 | 188 | 0.0 | 0.0 | 0.00 | 0.00 | 0.00 | 96 | 1019.3 |
| 20260902091523 | 70 | 188 | 0.0 | 0.0 | 0.00 | 0.00 | 0.00 | 96 | 1019.3 |
| 20260902091022 | 70 | 188 | 0.0 | 0.0 | 0.00 | 0.00 | 0.00 | 96 | 1019.3 |
| 20260902090522 | 70 | 188 | 0.0 | 0.0 | 0.00 | 0.00 | 0.00 | 96 | 1019.3 |
| 20260902090021 | 70 | 188 | 0.0 | 0.0 | 0.00 | 0.00 | 0.00 | 96 | 1019.2 |
| 20260902085521 | 71 | 188 | 0.0 | 0.0 | 0.00 | 0.00 | 0.00 | 96 | 1019.2 |
| 20260902085020 | 71 | 188 | 0.0 | 0.0 | 0.00 | 0.00 | 0.00 | 96 | 1019.3 |
| 20260902084520 | 71 | 188 | 0.0 | 0.0 | 0.00 | 0.00 | 0.00 | 97 | 1019.2 |
| 20260902084023 | 71 | 188 | 0.0 | 0.0 | 0.00 | 0.00 | 0.00 | 96 | 1019.2 |
| 20260902083520 | 71 | 188 | 0.0 | 0.0 | 0.00 | 0.00 | 0.00 | 96 | 1019.2 |
| 20260902083020 | 71 | 188 | 0.0 | 0.0 | 0.00 | 0.00 | 0.00 | 96 | 1019.3 |
| 20260902082519 | 71 | 188 | 0.0 | 0.0 | 0.00 | 0.00 | 0.00 | 96 | 1019.2 |
| 20260902082018 | 71 | 188 | 0.0 | 0.0 | 0.00 | 0.00 | 0.00 | 96 | 1019.2 |
| 20260902081518 | 71 | 188 | 0.0 | 0.0 | 0.00 | 0.00 | 0.00 | 97 | 1019.2 |
| 20260902081018 | 71 | 188 | 0.0 | 0.0 | 0.00 | 0.00 | 0.00 | 97 | 1019.1 |
| 20260902080518 | 71 | 188 | 0.0 | 0.0 | 0.00 | 0.00 | 0.00 | 97 | 1019.1 |
| 20260902080018 | 71 | 188 | 0.0 | 0.0 | 0.00 | 0.00 | 0.00 | 97 | 1019.0 |
| 20260902075517 | 71 | 188 | 0.0 | 0.0 | 0.00 | 0.00 | 0.00 | 97 | 1019.1 |
| 20260902075018 | 71 | 188 | 0.0 | 0.0 | 0.00 | 0.00 | 0.00 | 96 | 1019.0 |
| 20260902074523 | 72 | 188 | 0.0 | 0.0 | 0.00 | 0.00 | 0.00 | 96 | 1019.1 |
| 20260902074015 | 72 | 188 | 0.0 | 0.0 | 0.00 | 0.00 | 0.00 | 96 | 1019.0 |
| 20260902073516 | 72 | 188 | 0.0 | 0.0 | 0.00 | 0.00 | 0.00 | 96 | 1019.0 |
| 20260902073016 | 72 | 188 | 0.0 | 0.0 | 0.00 | 0.00 | 0.00 | 96 | 1019.0 |
| 20260902072513 | 72 | 188 | 0.0 | 0.0 | 0.00 | 0.00 | 0.00 | 96 | 1019.0 |
| 20260902072013 | 72 | 188 | 0.0 | 0.0 | 0.00 | 0.00 | 0.00 | 96 | 1019.1 |
| 20260902071515 | 72 | 188 | 0.0 | 0.0 | 0.00 | 0.00 | 0.00 | 96 | 1019.1 |
| 20260902071015 | 72 | 188 | 0.0 | 0.0 | 0.00 | 0.00 | 0.00 | 96 | 1019.2 |
| 20260902070515 | 72 | 188 | 0.0 | 0.0 | 0.00 | 0.00 | 0.00 | 96 | 1019.2 |
| 20260902070011 | 72 | 188 | 0.0 | 0.0 | 0.00 | 0.00 | 0.00 | 96 | 1019.1 |
| 20260902065512 | 72 | 188 | 0.0 | 0.0 | 0.00 | 0.00 | 0.00 | 96 | 1019.1 |
| 20260902065011 | 72 | 188 | 0.0 | 0.0 | 0.00 | 0.00 | 0.00 | 96 | 1019.1 |
| 20260902064511 | 73 | 188 | 0.0 | 0.0 | 0.00 | 0.00 | 0.00 | 96 | 1019.1 |
| 20260902064010 | 73 | 88 | 0.0 | 0.0 | 0.00 | 0.00 | 0.00 | 96 | 1019.0 |
| 20260902063512 | 73 | 88 | 0.0 | 0.0 | 0.00 | 0.00 | 0.00 | 96 | 1019.0 |
| 20260902063010 | 73 | 88 | 0.0 | 0.0 | 0.00 | 0.00 | 0.00 | 96 | 1019.1 |
| 20260902062510 | 73 | 88 | 0.0 | 0.0 | 0.00 | 0.00 | 0.00 | 96 | 1019.1 |
| 20260902062012 | 73 | 88 | 0.0 | 0.0 | 0.00 | 0.00 | 0.00 | 96 | 1019.1 |
| 20260902061518 | 73 | 88 | 0.0 | 0.0 | 0.00 | 0.00 | 0.00 | 96 | 1019.1 |
| 20260902061008 | 73 | 88 | 0.0 | 0.0 | 0.00 | 0.00 | 0.00 | 96 | 1019.0 |
| 20260902060507 | 72 | 88 | 0.0 | 0.0 | 0.00 | 0.00 | 0.00 | 96 | 1019.1 |
| 20260902060010 | 72 | 88 | 0.0 | 0.0 | 0.00 | 0.00 | 0.00 | 96 | 1019.1 |
| 20260902055508 | 73 | 88 | 0.0 | 0.0 | 0.00 | 0.00 | 0.00 | 96 | 1019.1 |
| 20260902055006 | 73 | 88 | 0.0 | 0.0 | 0.00 | 0.00 | 0.00 | 96 | 1019.1 |
| 20260902054506 | 73 | 88 | 0.0 | 0.0 | 0.00 | 0.00 | 0.00 | 96 | 1019.0 |
| 20260902054005 | 73 | 88 | 0.0 | 0.0 | 0.00 | 0.00 | 0.00 | 96 | 1019.0 |
| 20260902053505 | 73 | 88 | 0.0 | 0.0 | 0.00 | 0.00 | 0.00 | 96 | 1019.1 |
| 20260902053005 | 73 | 88 | 0.0 | 0.0 | 0.00 | 0.00 | 0.00 | 96 | 1019.1 |
| 20260902052505 | 73 | 88 | 0.0 | 0.0 | 0.00 | 0.00 | 0.00 | 95 | 1019.1 |
| 20260902052008 | 73 | 88 | 0.0 | 0.0 | 0.00 | 0.00 | 0.00 | 95 | 1019.0 |
| 20260902051502 | 73 | 88 | 0.0 | 0.0 | 0.00 | 0.00 | 0.00 | 95 | 1019.1 |
| 20260902051003 | 73 | 88 | 0.0 | 0.0 | 0.00 | 0.00 | 0.00 | 95 | 1019.0 |
| 20260902050501 | 74 | 88 | 0.0 | 0.0 | 0.00 | 0.00 | 0.00 | 95 | 1019.0 |
| 20260902050002 | 74 | 88 | 0.0 | 0.0 | 0.00 | 0.00 | 0.00 | 95 | 1019.1 |
| 20260902045502 | 74 | 88 | 0.0 | 0.0 | 0.00 | 0.00 | 0.00 | 95 | 1019.0 |
| 20260902045100 | 74 | 88 | 0.0 | 0.0 | 0.00 | 0.00 | 0.00 | 95 | 1019.0 |
| 20260902044600 | 74 | 88 | 0.0 | 0.0 | 0.00 | 0.00 | 0.00 | 95 | 1019.0 |
| 20260902044100 | 74 | 88 | 0.0 | 0.0 | 0.00 | 0.00 | 0.00 | 95 | 1019.1 |
| 20260902043559 | 74 | 88 | 0.0 | 0.0 | 0.00 | 0.00 | 0.00 | 95 | 1019.0 |
| 20260902043059 | 74 | 88 | 0.0 | 0.0 | 0.00 | 0.00 | 0.00 | 95 | 1019.0 |
| 20260902042559 | 74 | 88 | 0.0 | 0.0 | 0.00 | 0.00 | 0.00 | 95 | 1018.9 |
| 20260902042059 | 74 | 88 | 0.0 | 0.0 | 0.00 | 0.00 | 0.00 | 95 | 1019.0 |
| 20260902041659 | 74 | 88 | 0.0 | 0.0 | 0.00 | 0.00 | 0.00 | 95 | 1019.0 |
| 20260902041057 | 74 | 88 | 0.0 | 0.0 | 0.00 | 0.00 | 0.00 | 95 | 1019.0 |
| 20260902040557 | 74 | 88 | 0.0 | 0.0 | 0.00 | 0.00 | 0.00 | 95 | 1019.0 |
| 20260902040056 | 74 | 88 | 0.0 | 0.0 | 0.00 | 0.00 | 0.00 | 95 | 1018.9 |
| 20260902035556 | 74 | 88 | 0.0 | 0.0 | 0.00 | 0.00 | 0.00 | 95 | 1019.0 |
| 20260902035055 | 74 | 88 | 0.0 | 0.0 | 0.00 | 0.00 | 0.00 | 95 | 1018.9 |
| 20260902034555 | 75 | 88 | 0.0 | 0.0 | 0.00 | 0.00 | 0.00 | 95 | 1018.9 |
| 20260902034054 | 75 | 88 | 0.0 | 0.0 | 0.00 | 0.00 | 0.00 | 95 | 1018.9 |
| 20260902033554 | 75 | 88 | 0.0 | 0.0 | 0.00 | 0.00 | 0.00 | 95 | 1018.9 |
| 20260902033055 | 75 | 88 | 0.0 | 0.0 | 0.00 | 0.00 | 0.00 | 94 | 1018.9 |
| 20260902032556 | 75 | 88 | 0.0 | 0.0 | 0.00 | 0.00 | 0.00 | 94 | 1018.9 |
| 20260902032055 | 75 | 88 | 0.0 | 0.0 | 0.00 | 0.00 | 0.00 | 94 | 1018.9 |
| 20260902031611 | 75 | 88 | 0.0 | 0.0 | 0.00 | 0.00 | 0.00 | 94 | 1019.0 |
| 20260902031055 | 75 | 88 | 0.0 | 0.0 | 0.00 | 0.00 | 0.00 | 94 | 1019.1 |
| 20260902030553 | 75 | 88 | 0.0 | 0.0 | 0.00 | 0.00 | 0.00 | 94 | 1019.0 |
| 20260902030057 | 75 | 88 | 0.0 | 0.0 | 0.00 | 0.00 | 0.00 | 94 | 1019.0 |
| 20260902025553 | 75 | 88 | 0.0 | 0.0 | 0.00 | 0.00 | 0.00 | 93 | 1019.0 |
| 20260902025053 | 75 | 88 | 0.0 | 0.0 | 0.00 | 0.00 | 0.00 | 93 | 1019.0 |
| 20260902024605 | 76 | 88 | 0.0 | 0.0 | 0.00 | 0.00 | 0.00 | 93 | 1019.1 |
| 20260902024052 | 76 | 88 | 0.0 | 0.0 | 0.00 | 0.00 | 0.00 | 93 | 1019.1 |
| 20260902023552 | 76 | 88 | 0.0 | 0.0 | 0.00 | 0.00 | 0.00 | 92 | 1019.0 |
| 20260902023101 | 76 | 88 | 0.0 | 0.0 | 0.00 | 0.00 | 0.00 | 92 | 1018.8 |
| 20260902022551 | 76 | 88 | 0.0 | 0.0 | 0.00 | 0.00 | 0.00 | 92 | 1018.8 |
| 20260902022052 | 76 | 88 | 0.0 | 0.0 | 0.00 | 0.00 | 0.00 | 92 | 1018.8 |
| 20260902021558 | 76 | 88 | 0.0 | 0.0 | 0.00 | 0.00 | 0.00 | 92 | 1018.8 |
| 20260902021052 | 76 | 88 | 0.0 | 0.0 | 0.00 | 0.00 | 0.00 | 92 | 1018.8 |
| 20260902020552 | 76 | 88 | 0.0 | 0.0 | 0.00 | 0.00 | 0.00 | 92 | 1018.7 |
| 20260902020052 | 77 | 88 | 0.0 | 0.0 | 0.00 | 0.00 | 0.00 | 92 | 1018.6 |
| 20260902015552 | 77 | 88 | 0.0 | 0.0 | 0.00 | 0.00 | 0.00 | 92 | 1018.5 |
| 20260902015053 | 77 | 88 | 0.0 | 0.0 | 0.00 | 0.00 | 0.00 | 92 | 1018.5 |
| 20260902014551 | 77 | 88 | 0.0 | 0.0 | 0.00 | 0.00 | 0.00 | 92 | 1018.5 |
| 20260902014050 | 77 | 88 | 0.0 | 0.0 | 0.00 | 0.00 | 0.00 | 92 | 1018.5 |
| 20260902013554 | 77 | 88 | 0.0 | 0.0 | 0.00 | 0.00 | 0.00 | 92 | 1018.5 |
| 20260902013051 | 78 | 88 | 0.0 | 0.0 | 0.00 | 0.00 | 0.00 | 91 | 1018.3 |
| 20260902012550 | 78 | 88 | 0.0 | 0.0 | 0.00 | 0.00 | 0.00 | 91 | 1018.4 |
| 20260902012051 | 78 | 88 | 0.0 | 0.0 | 0.00 | 0.00 | 0.00 | 91 | 1018.3 |
| 20260902011550 | 78 | 88 | 0.0 | 0.0 | 0.00 | 0.00 | 0.00 | 90 | 1018.3 |
| 20260902011050 | 78 | 88 | 0.0 | 0.0 | 0.00 | 0.00 | 0.00 | 90 | 1018.3 |
| 20260902010550 | 78 | 88 | 0.0 | 0.0 | 0.00 | 0.00 | 0.00 | 89 | 1018.4 |
| 20260902010050 | 79 | 88 | 0.0 | 0.0 | 0.00 | 0.00 | 0.00 | 89 | 1018.3 |
| 20260902005550 | 79 | 88 | 0.0 | 0.0 | 0.00 | 0.00 | 0.00 | 89 | 1018.4 |
| 20260902005049 | 79 | 88 | 0.0 | 0.0 | 0.00 | 0.00 | 0.00 | 88 | 1018.3 |
| 20260902004551 | 79 | 88 | 0.0 | 0.0 | 0.00 | 0.00 | 0.00 | 87 | 1018.3 |
| 20260902004049 | 79 | 88 | 0.0 | 0.0 | 0.00 | 0.00 | 0.00 | 86 | 1018.2 |
| 20260902003548 | 80 | 88 | 0.0 | 0.0 | 0.00 | 0.00 | 0.00 | 85 | 1018.2 |
| 20260902003049 | 80 | 88 | 0.0 | 0.0 | 0.00 | 0.00 | 0.00 | 83 | 1018.1 |
| 20260902002551 | 80 | 88 | 0.0 | 0.0 | 0.00 | 0.00 | 0.00 | 82 | 1018.2 |
| 20260902002048 | 81 | 88 | 0.0 | 0.0 | 0.00 | 0.00 | 0.00 | 82 | 1018.1 |
| 20260902001601 | 81 | 88 | 0.0 | 0.0 | 0.00 | 0.00 | 0.00 | 82 | 1018.0 |
| 20260902001049 | 81 | 88 | 0.0 | 0.0 | 0.00 | 0.00 | 0.00 | 80 | 1018.2 |
| 20260902000551 | 81 | 88 | 0.0 | 0.0 | 0.00 | 0.00 | 0.00 | 80 | 1018.1 |
| 20260902000048 | 81 | 88 | 0.0 | 0.0 | 0.00 | 0.00 | 0.00 | 80 | 1018.2 |
| 20260901235548 | 82 | 88 | 0.0 | 0.0 | 0.00 | 0.00 | 0.00 | 79 | 1018.0 |
| 20260901235046 | 82 | 88 | 0.0 | 0.0 | 0.00 | 0.00 | 0.00 | 79 | 1018.1 |
| 20260901234556 | 82 | 88 | 0.0 | 0.0 | 0.00 | 0.00 | 0.00 | 79 | 1018.1 |
| 20260901234047 | 82 | 88 | 0.0 | 0.0 | 0.00 | 0.00 | 0.00 | 79 | 1018.1 |
| 20260901233547 | 83 | 88 | 0.0 | 0.0 | 0.00 | 0.00 | 0.00 | 78 | 1018.0 |
| 20260901233056 | 83 | 88 | 0.0 | 0.0 | 0.00 | 0.00 | 0.00 | 76 | 1018.0 |
| 20260901232551 | 84 | 88 | 0.0 | 0.0 | 0.00 | 0.00 | 0.00 | 76 | 1018.1 |
| 20260901232047 | 84 | 88 | 0.0 | 0.0 | 0.00 | 0.00 | 0.00 | 75 | 1018.1 |
| 20260901231546 | 84 | 88 | 0.0 | 0.0 | 0.00 | 0.00 | 0.00 | 71 | 1018.1 |
| 20260901231046 | 85 | 88 | 0.0 | 0.0 | 0.00 | 0.00 | 0.00 | 71 | 1018.1 |
| 20260901230546 | 85 | 88 | 0.0 | 0.0 | 0.00 | 0.00 | 0.00 | 69 | 1018.2 |
| 20260901230046 | 86 | 88 | 0.0 | 0.0 | 0.00 | 0.00 | 0.00 | 66 | 1018.3 |
| 20260901225549 | 86 | 88 | 0.0 | 0.0 | 0.00 | 0.00 | 0.00 | 68 | 1018.2 |
| 20260901225045 | 86 | 88 | 0.0 | 0.0 | 0.00 | 0.00 | 0.00 | 68 | 1018.2 |
| 20260901224545 | 86 | 88 | 0.0 | 0.0 | 0.00 | 0.00 | 0.00 | 68 | 1018.2 |
| 20260901224045 | 87 | 88 | 0.0 | 0.0 | 0.00 | 0.00 | 0.00 | 67 | 1018.1 |
| 20260901223545 | 87 | 88 | 0.0 | 0.0 | 0.00 | 0.00 | 0.00 | 65 | 1018.1 |
| 20260901223045 | 87 | 88 | 0.0 | 0.0 | 0.00 | 0.00 | 0.00 | 64 | 1018.1 |
| 20260901222544 | 87 | 88 | 0.0 | 0.0 | 0.00 | 0.00 | 0.00 | 65 | 1017.9 |
| 20260901222046 | 88 | 88 | 0.0 | 0.0 | 0.00 | 0.00 | 0.00 | 62 | 1018.1 |
| 20260901221545 | 88 | 88 | 0.0 | 0.0 | 0.00 | 0.00 | 0.00 | 62 | 1018.0 |
| 20260901221045 | 88 | 88 | 0.0 | 0.0 | 0.00 | 0.00 | 0.00 | 59 | 1017.8 |
| 20260901220543 | 88 | 88 | 0.0 | 0.0 | 0.00 | 0.00 | 0.00 | 63 | 1017.8 |
| 20260901220045 | 89 | 88 | 0.0 | 0.0 | 0.00 | 0.00 | 0.00 | 62 | 1017.9 |
| 20260901215544 | 88 | 88 | 0.0 | 0.0 | 0.00 | 0.00 | 0.00 | 61 | 1018.0 |
| 20260901215043 | 88 | 88 | 0.0 | 0.0 | 0.00 | 0.00 | 0.00 | 65 | 1018.1 |
| 20260901214544 | 88 | 88 | 0.0 | 0.0 | 0.00 | 0.00 | 0.00 | 62 | 1018.2 |
| 20260901214042 | 87 | 88 | 0.0 | 0.0 | 0.00 | 0.00 | 0.00 | 67 | 1018.2 |
| 20260901213541 | 88 | 88 | 0.0 | 0.0 | 0.00 | 0.00 | 0.00 | 66 | 1018.2 |
| 20260901213059 | 87 | 88 | 0.0 | 0.0 | 0.00 | 0.00 | 0.00 | 66 | 1018.2 |
| 20260901212542 | 87 | 88 | 0.0 | 2.0 | 0.00 | 0.00 | 0.00 | 64 | 1018.1 |
| 20260901212041 | 89 | 88 | 0.0 | 4.0 | 0.00 | 0.00 | 0.00 | 62 | 1018.1 |
| 20260901211542 | 89 | 90 | 2.0 | 4.0 | 0.00 | 0.00 | 0.00 | 61 | 1018.1 |
| 20260901211040 | 89 | 109 | 0.0 | 4.0 | 0.00 | 0.00 | 0.00 | 59 | 1018.1 |
| 20260901210540 | 89 | 96 | 1.0 | 4.0 | 0.00 | 0.00 | 0.00 | 59 | 1018.1 |
| 20260901210040 | 90 | 55 | 0.0 | 4.0 | 0.00 | 0.00 | 0.00 | 61 | 1018.1 |
| 20260901205542 | 90 | 69 | 0.0 | 4.0 | 0.00 | 0.00 | 0.00 | 60 | 1018.1 |
| 20260901205041 | 89 | 57 | 0.0 | 4.0 | 0.00 | 0.00 | 0.00 | 61 | 1018.2 |
| 20260901204539 | 90 | 98 | 1.0 | 4.0 | 0.00 | 0.00 | 0.00 | 62 | 1018.2 |
| 20260901204038 | 90 | 42 | 0.0 | 2.0 | 0.00 | 0.00 | 0.00 | 58 | 1018.2 |
| 20260901203542 | 91 | 97 | 0.0 | 3.0 | 0.00 | 0.00 | 0.00 | 60 | 1018.3 |
| 20260901203101 | 90 | 294 | 1.0 | 3.0 | 0.00 | 0.00 | 0.00 | 61 | 1018.3 |
| 20260901202538 | 91 | 289 | 0.0 | 1.0 | 0.00 | 0.00 | 0.00 | 57 | 1018.4 |
| 20260901202038 | 91 | 289 | 0.0 | 2.0 | 0.00 | 0.00 | 0.00 | 59 | 1018.4 |
| 20260901201537 | 91 | 289 | 0.0 | 3.0 | 0.00 | 0.00 | 0.00 | 56 | 1018.4 |
| 20260901201036 | 91 | 289 | 0.0 | 3.0 | 0.00 | 0.00 | 0.00 | 52 | 1018.5 |
| 20260901200535 | 91 | 289 | 0.0 | 2.0 | 0.00 | 0.00 | 0.00 | 54 | 1018.6 |
| 20260901200040 | 91 | 246 | 1.0 | 2.0 | 0.00 | 0.00 | 0.00 | 54 | 1018.5 |
| 20260901195535 | 91 | 313 | 0.0 | 3.0 | 0.00 | 0.00 | 0.00 | 55 | 1018.5 |
| 20260901195033 | 92 | 289 | 0.0 | 2.0 | 0.00 | 0.00 | 0.00 | 55 | 1018.5 |
| 20260901194538 | 92 | 342 | 0.0 | 0.0 | 0.00 | 0.00 | 0.00 | 54 | 1018.6 |
| 20260901194035 | 92 | 230 | 0.0 | 1.0 | 0.00 | 0.00 | 0.00 | 58 | 1018.6 |
| 20260901193533 | 91 | 124 | 0.0 | 1.0 | 0.00 | 0.00 | 0.00 | 52 | 1018.6 |
| 20260901193033 | 91 | 328 | 0.0 | 3.0 | 0.00 | 0.00 | 0.00 | 60 | 1018.8 |
| 20260901192532 | 91 | 360 | 1.0 | 4.0 | 0.00 | 0.00 | 0.00 | 53 | 1018.8 |
| 20260901192030 | 91 | 263 | 2.0 | 4.0 | 0.00 | 0.00 | 0.00 | 52 | 1019.0 |
| 20260901191531 | 91 | 287 | 1.0 | 3.0 | 0.00 | 0.00 | 0.00 | 57 | 1018.9 |
| 20260901191029 | 90 | 287 | 0.0 | 6.0 | 0.00 | 0.00 | 0.00 | 58 | 1018.8 |
| 20260901190531 | 90 | 233 | 1.0 | 6.0 | 0.00 | 0.00 | 0.00 | 58 | 1019.1 |
| 20260901190031 | 90 | 317 | 0.0 | 2.0 | 0.00 | 0.00 | 0.00 | 56 | 1019.1 |
| 20260901185527 | 91 | 360 | 0.0 | 6.0 | 0.00 | 0.00 | 0.00 | 59 | 1019.1 |
| 20260901185030 | 91 | 278 | 0.0 | 4.0 | 0.00 | 0.00 | 0.00 | 55 | 1019.1 |
| 20260901184526 | 91 | 276 | 0.0 | 2.0 | 0.00 | 0.00 | 0.00 | 59 | 1019.1 |
| 20260901184026 | 91 | 86 | 0.0 | 3.0 | 0.00 | 0.00 | 0.00 | 54 | 1019.3 |
| 20260901183529 | 91 | 288 | 0.0 | 3.0 | 0.00 | 0.00 | 0.00 | 54 | 1019.2 |
| 20260901183023 | 90 | 340 | 0.0 | 3.0 | 0.00 | 0.00 | 0.00 | 58 | 1019.3 |
| 20260901182525 | 90 | 290 | 0.0 | 1.0 | 0.00 | 0.00 | 0.00 | 60 | 1019.4 |
| 20260901182024 | 90 | 17 | 0.0 | 3.0 | 0.00 | 0.00 | 0.00 | 57 | 1019.4 |
| 20260901181526 | 90 | 9 | 0.0 | 3.0 | 0.00 | 0.00 | 0.00 | 59 | 1019.3 |
| 20260901181024 | 90 | 59 | 0.0 | 3.0 | 0.00 | 0.00 | 0.00 | 67 | 1019.5 |
| 20260901180523 | 89 | 273 | 0.0 | 3.0 | 0.00 | 0.00 | 0.00 | 58 | 1019.5 |
| 20260901180021 | 90 | 77 | 1.0 | 2.0 | 0.00 | 0.00 | 0.00 | 63 | 1019.5 |
| 20260901175523 | 90 | 21 | 0.0 | 3.0 | 0.00 | 0.00 | 0.00 | 63 | 1019.5 |
| 20260901175019 | 89 | 26 | 0.0 | 3.0 | 0.00 | 0.00 | 0.00 | 59 | 1019.5 |
| 20260901174519 | 89 | 32 | 1.0 | 2.0 | 0.00 | 0.00 | 0.00 | 61 | 1019.6 |
| 20260901174019 | 89 | 19 | 0.0 | 6.0 | 0.00 | 0.00 | 0.00 | 58 | 1019.6 |
| 20260901173518 | 89 | 136 | 2.0 | 6.0 | 0.00 | 0.00 | 0.00 | 56 | 1019.7 |
| 20260901173018 | 89 | 101 | 1.0 | 3.0 | 0.00 | 0.00 | 0.00 | 62 | 1019.7 |
| 20260901172517 | 90 | 337 | 0.0 | 8.0 | 0.00 | 0.00 | 0.00 | 62 | 1019.8 |
| 20260901172017 | 89 | 227 | 3.0 | 8.0 | 0.00 | 0.00 | 0.00 | 56 | 1019.7 |
| 20260901171516 | 89 | 355 | 0.0 | 4.0 | 0.00 | 0.00 | 0.00 | 59 | 1019.8 |
| 20260901171016 | 89 | 30 | 0.0 | 4.0 | 0.00 | 0.00 | 0.00 | 58 | 1019.9 |
| 20260901170515 | 89 | 24 | 1.0 | 3.0 | 0.00 | 0.00 | 0.00 | 59 | 1020.0 |
| 20260901170015 | 89 | 39 | 0.0 | 2.0 | 0.00 | 0.00 | 0.00 | 58 | 1019.9 |
| 20260901165514 | 89 | 360 | 0.0 | 3.0 | 0.00 | 0.00 | 0.00 | 57 | 1020.0 |
| 20260901165013 | 89 | 329 | 0.0 | 3.0 | 0.00 | 0.00 | 0.00 | 64 | 1019.9 |
| 20260901164513 | 88 | 38 | 0.0 | 2.0 | 0.00 | 0.00 | 0.00 | 60 | 1020.1 |
| 20260901164012 | 88 | 5 | 0.0 | 3.0 | 0.00 | 0.00 | 0.00 | 60 | 1020.2 |
| 20260901163514 | 88 | 105 | 1.0 | 3.0 | 0.00 | 0.00 | 0.00 | 59 | 1020.3 |
| 20260901163014 | 88 | 238 | 0.0 | 2.0 | 0.00 | 0.00 | 0.00 | 58 | 1020.3 |
| 20260901162513 | 88 | 306 | 0.0 | 3.0 | 0.00 | 0.00 | 0.00 | 65 | 1020.4 |
| 20260901162009 | 88 | 32 | 0.0 | 2.0 | 0.00 | 0.00 | 0.00 | 62 | 1020.4 |
| 20260901161509 | 88 | 309 | 0.0 | 4.0 | 0.00 | 0.00 | 0.00 | 63 | 1020.6 |
| 20260901161009 | 88 | 85 | 0.0 | 4.0 | 0.00 | 0.00 | 0.00 | 64 | 1020.5 |
| 20260901160507 | 87 | 80 | 0.0 | 3.0 | 0.00 | 0.00 | 0.00 | 67 | 1020.5 |
| 20260901160010 | 87 | 254 | 1.0 | 3.0 | 0.00 | 0.00 | 0.00 | 66 | 1020.7 |
| 20260901155506 | 87 | 250 | 0.0 | 1.0 | 0.00 | 0.00 | 0.00 | 66 | 1020.8 |
| 20260901155006 | 87 | 40 | 0.0 | 1.0 | 0.00 | 0.00 | 0.00 | 70 | 1020.7 |
| 20260901154506 | 86 | 108 | 0.0 | 3.0 | 0.00 | 0.00 | 0.00 | 65 | 1020.7 |
| 20260901154004 | 86 | 113 | 0.0 | 3.0 | 0.00 | 0.00 | 0.00 | 69 | 1020.8 |
| 20260901153506 | 86 | 287 | 0.0 | 2.0 | 0.00 | 0.00 | 0.00 | 70 | 1020.9 |
| 20260901153004 | 86 | 287 | 0.0 | 2.0 | 0.00 | 0.00 | 0.00 | 68 | 1021.0 |
| 20260901152501 | 85 | 56 | 0.0 | 1.0 | 0.00 | 0.00 | 0.00 | 70 | 1020.9 |